This is the latest recevied weather packets stored in our database for station/object SV1JSO-13. If no packets are shown the sender has not sent any weather packets the latest 10 day(s).
| Time | Temp. | Humidity | Pressure | Rain* | Wind** | Luminosity | Snow |
|---|---|---|---|---|---|---|---|
| 1788624901 | 31.67° C | 25% | 1009.7 hPa | 0 mm | - | 40 W/m² | - |
| 1788624601 | 31.67° C | 25% | 1009.7 hPa | 0 mm | - | 49 W/m² | - |
| 1788624301 | 31.67° C | 25% | 1009.7 hPa | 0 mm | - | 58 W/m² | - |
| 1788624000 | 31.67° C | 25% | 1009.7 hPa | 0 mm | - | 67 W/m² | - |
| 1788623701 | 32.22° C | 25% | 1009.7 hPa | 0 mm | - | 79 W/m² | - |
| 1788623401 | 32.22° C | 26% | 1009.7 hPa | 0 mm | - | 90 W/m² | - |
| 1788623116 | 32.22° C | 25% | 1009.7 hPa | 0 mm | - | 101 W/m² | - |
| 1788622801 | 32.22° C | 25% | 1009.8 hPa | 0 mm | - | 115 W/m² | - |
| 1788622501 | 32.22° C | 25% | 1009.8 hPa | 0 mm | - | 127 W/m² | - |
| 1788622200 | 32.22° C | 25% | 1009.7 hPa | 0 mm | - | 137 W/m² | - |
| 1788621900 | 32.22° C | 25% | 1009.7 hPa | 0 mm | - | 142 W/m² | - |
| 1788621601 | 32.22° C | 25% | 1009.8 hPa | 0 mm | - | 152 W/m² | - |
| 1788621301 | 32.22° C | 25% | 1009.8 hPa | 0 mm | - | 165 W/m² | - |
| 1788621001 | 32.22° C | 25% | 1009.7 hPa | 0 mm | - | 187 W/m² | - |
| 1788620711 | 32.22° C | 26% | 1009.8 hPa | 0 mm | - | 196 W/m² | - |
| 1788620401 | 32.22° C | 26% | 1009.6 hPa | 0 mm | - | 213 W/m² | - |
| 1788620100 | 32.78° C | 26% | 1009.7 hPa | 0 mm | - | 228 W/m² | - |
| 1788619801 | 32.22° C | 26% | 1009.6 hPa | 0 mm | - | 244 W/m² | - |
| 1788619501 | 32.78° C | 27% | 1009.6 hPa | 0 mm | - | 253 W/m² | - |
| 1788619201 | 32.22° C | 27% | 1009.5 hPa | 0 mm | - | 268 W/m² | - |
| 1788618901 | 32.78° C | 26% | 1009.6 hPa | 0 mm | - | 284 W/m² | - |
| 1788618601 | 32.78° C | 27% | 1009.5 hPa | 0 mm | - | 298 W/m² | - |
| 1788618301 | 32.22° C | 26% | 1009.5 hPa | 0 mm | - | 317 W/m² | - |
| 1788618001 | 32.78° C | 26% | 1009.5 hPa | 0 mm | - | 329 W/m² | - |
| 1788617701 | 32.78° C | 27% | 1009.5 hPa | 0 mm | - | 344 W/m² | - |
* Rain latest hour (hover to see other rain measurements)
** Current wind speed in m/s (hover to see current wind gust speed)